Location: Göttingen
(51.5413°N, 9.9158°E)
Time: 12:30:53
(UTC+02:00)

UWE-3 - Visible Passes

Search period start: 29 June 2022 00:00
Search period end: 09 July 2022 00:00
Orbit: 581 x 679 km, 97.7° (Epoch: 28 June)

Date Brightness Start Highest point End Pass type
(mag) Time Alt. Az. Time Alt. Az. Time Alt. Az.
29 Jun ? 03:32:43 10° NE 03:34:59 14° E 03:37:17 10° ESE visible
30 Jun ? 03:52:25 10° NE 03:55:45 21° E 03:59:06 10° SE visible
01 Jul ? 04:12:31 10° NNE 04:16:26 32° E 04:20:23 10° SSE visible
03 Jul ? 03:19:41 10° ENE 03:20:33 10° E 03:21:25 10° E visible
04 Jul ? 03:38:33 10° NE 03:41:20 16° E 03:44:10 10° SE visible
05 Jul ? 03:58:26 10° NE 04:02:03 25° E 04:05:44 10° SSE visible
06 Jul ? 04:18:36 10° NNE 04:22:42 37° E 04:26:53 10° SSE visible
08 Jul ? 03:24:55 10° ENE 03:26:52 13° E 03:28:50 10° ESE visible
